Change the Weather History Date:

Wednesday, October 26, 2011

  Actual Average Record
Temperature  
Mean Temperature 36 °F -  
Max Temperature 42 °F 44 °F 60 °F (2007)
Min Temperature 30 °F 28 °F 14 °F (2012)
Degree Days  
Heating Degree Days 29    
Moisture  
Dew Point 32 °F    
Average Humidity 92    
Maximum Humidity 100    
Minimum Humidity 53    
Precipitation  
Precipitation 0.07 in - - ()
Sea Level Pressure  
Sea Level Pressure 30.01 in    
Wind  
Wind Speed 4 mph (WSW)    
Max Wind Speed 16 mph    
Max Gust Speed 32 mph    
Visibility 7 miles    
Events Rain , Snow , Thunderstorm    
Averages and records for this station are not official NWS values.
T = Trace of Precipitation, MM = Missing Value Source: NWS Daily Summary

Daily Weather History Graph

Daily Weather History Graph

Search for Another Location

Airport or City:

Trip Planner

Search our weather history database for the weather conditions in past years. The results will help you decide how hot, cold, wet, or windy it might be!

Date:

Astronomy

Oct. 26, 2011 Rise Set
Actual Time 7:30 AM MDT 6:19 PM MDT
Civil Twilight 7:03 AM MDT 6:46 PM MDT
Nautical Twilight 6:33 AM MDT 7:17 PM MDT
Astronomical Twilight 6:02 AM MDT 7:48 PM MDT
Moon 7:21 AM MDT (10/26) 6:05 PM MDT (10/26)
Length of Visible Light 11h 42m
Length of Day
10h 48m
Waning Crescent, 0% of the Moon is Illuminated
Oct 26
Waning Crescent
Oct 26
New
Nov 2
First Quarter
Nov 10
Full
Nov 18
Last Quarter

Hourly Weather History & Observations

Time (MDT) Temp. Windchill Dew Point Humidity Pressure Visibility Wind Dir Wind Speed Gust Speed Precip Events Conditions
12:15 AM 37.4 °F - 33.8 °F 87% 30.12 in 10.0 mi Calm Calm - N/A   Overcast
12:35 AM 37.4 °F - 35.6 °F 93% 30.12 in 10.0 mi Calm Calm - N/A   Light Drizzle
12:55 AM 37.4 °F 31.4 °F 33.8 °F 87% 30.10 in 4.0 mi SSE 8.1 mph 21.9 mph 0.02 in Rain , Thunderstorm Rain
1:15 AM 35.6 °F - 33.8 °F 93% 30.10 in 10.0 mi Calm Calm - N/A   Overcast
1:35 AM 37.4 °F - 33.8 °F 87% 30.08 in 10.0 mi Calm Calm - N/A   Overcast
1:55 AM 35.6 °F 31.7 °F 33.8 °F 93% 30.07 in 10.0 mi ENE 4.6 mph - N/A   Overcast
2:15 AM 35.6 °F - 33.8 °F 93% 30.06 in 10.0 mi Calm Calm - N/A   Mostly Cloudy
2:35 AM 35.6 °F - 33.8 °F 93% 30.05 in 10.0 mi Calm Calm - N/A Thunderstorm Mostly Cloudy
2:55 AM 37.4 °F - 32.0 °F 81% 30.05 in 10.0 mi Calm Calm - N/A   Overcast
3:15 AM 37.4 °F - 33.8 °F 87% 30.04 in 10.0 mi Calm Calm - N/A Thunderstorm Thunderstorm
3:35 AM 39.2 °F - 32.0 °F 75% 30.03 in 10.0 mi Calm Calm - N/A Thunderstorm Overcast
3:55 AM 41.0 °F 37.1 °F 32.0 °F 70% 30.02 in 10.0 mi SSW 5.8 mph 16.1 mph N/A   Scattered Clouds
4:35 AM 42.8 °F 38.0 °F 30.2 °F 61% 30.02 in 10.0 mi WSW 8.1 mph - N/A Thunderstorm Thunderstorm
4:55 AM 42.8 °F 37.0 °F 28.4 °F 57% 30.01 in 10.0 mi SW 10.4 mph 32.2 mph 0.01 in   Mostly Cloudy
5:15 AM 42.8 °F 37.5 °F 26.6 °F 53% 30.01 in 10.0 mi SSW 9.2 mph 21.9 mph N/A   Overcast
5:35 AM 42.8 °F 36.6 °F 28.4 °F 57% 30.01 in 10.0 mi SW 11.5 mph 20.7 mph N/A   Mostly Cloudy
6:15 AM 37.4 °F 28.2 °F 32.0 °F 81% 30.00 in 10.0 mi WSW 16.1 mph 26.5 mph N/A   Overcast
6:35 AM 33.8 °F 27.7 °F 32.0 °F 93% 30.01 in 0.8 mi WNW 6.9 mph 16.1 mph N/A Snow Snow
7:15 AM 32.0 °F 28.7 °F 32.0 °F 100% 30.00 in 0.8 mi SW 3.5 mph - N/A Snow Light Snow
7:35 AM 32.0 °F 28.7 °F 32.0 °F 100% 30.02 in 0.8 mi WSW 3.5 mph - N/A Snow Light Snow
7:55 AM 32.0 °F 26.4 °F 32.0 °F 100% 30.00 in 1.8 mi East 5.8 mph - N/A Snow , Thunderstorm Light Thunderstorms and Snow
8:35 AM 32.0 °F 27.5 °F 32.0 °F 100% 29.99 in 0.2 mi WSW 4.6 mph - N/A Snow Light Snow
9:15 AM 32.0 °F 24.2 °F 32.0 °F 100% 29.99 in 0.5 mi West 9.2 mph - N/A Snow Light Snow
9:35 AM 32.0 °F 24.8 °F 32.0 °F 100% 29.99 in 0.2 mi West 8.1 mph - N/A Snow Light Snow
9:55 AM 32.0 °F 24.8 °F 32.0 °F 100% 30.00 in 0.2 mi West 8.1 mph - N/A Snow Light Snow
10:15 AM 32.0 °F 27.5 °F 32.0 °F 100% 30.00 in 0.2 mi WSW 4.6 mph - N/A Snow Light Snow
10:35 AM 32.0 °F - 32.0 °F 100% 29.99 in 0.2 mi Calm Calm - N/A Snow Light Snow
10:55 AM 32.0 °F - 32.0 °F 100% 30.00 in 1.2 mi Calm Calm - N/A Snow Light Snow
11:15 AM 32.0 °F - 32.0 °F 100% 30.01 in 5.0 mi Calm Calm - N/A   Overcast
11:35 AM 32.0 °F 23.6 °F 32.0 °F 100% 30.01 in 0.5 mi WSW 10.4 mph - N/A Snow Light Snow
11:55 AM 32.0 °F 24.8 °F 32.0 °F 100% 30.00 in 0.2 mi West 8.1 mph - N/A Snow Light Snow
12:15 PM 32.0 °F 25.6 °F 32.0 °F 100% 30.01 in 3.0 mi West 6.9 mph - N/A Snow Light Snow
12:35 PM 32.0 °F - 32.0 °F 100% 30.00 in 1.2 mi Calm Calm - N/A Snow Light Snow
12:55 PM 32.0 °F 28.7 °F 32.0 °F 100% 29.99 in 2.0 mi WSW 3.5 mph - N/A Snow Light Snow
1:15 PM 32.0 °F 26.4 °F 32.0 °F 100% 29.99 in 10.0 mi WSW 5.8 mph - N/A   Overcast
1:35 PM 32.0 °F - 32.0 °F 100% 29.99 in 4.0 mi Calm Calm - 0.03 in   Overcast
2:15 PM 33.8 °F 29.6 °F 32.0 °F 93% 29.97 in 10.0 mi WSW 4.6 mph - 0.01 in   Mostly Cloudy
2:35 PM 33.8 °F 27.7 °F 32.0 °F 93% 29.97 in 0.8 mi WSW 6.9 mph - 0.01 in   Overcast
2:55 PM 32.0 °F 25.6 °F 32.0 °F 100% 29.97 in 10.0 mi West 6.9 mph - 0.01 in Snow Light Snow
3:15 PM 32.0 °F 25.6 °F 32.0 °F 100% 29.97 in 10.0 mi West 6.9 mph - N/A   Overcast
3:35 PM 33.8 °F 28.6 °F 32.0 °F 93% 29.97 in 10.0 mi West 5.8 mph - N/A Snow Light Snow
3:55 PM 32.0 °F 25.6 °F 32.0 °F 100% 29.97 in 4.0 mi West 6.9 mph - N/A Snow Light Snow
4:15 PM 32.0 °F 26.4 °F 32.0 °F 100% 29.98 in 5.0 mi West 5.8 mph - N/A Snow Light Snow
4:35 PM 32.0 °F 24.8 °F 32.0 °F 100% 29.97 in 10.0 mi West 8.1 mph - N/A   Overcast
4:55 PM 32.0 °F 26.4 °F 32.0 °F 100% 29.97 in 10.0 mi WSW 5.8 mph - N/A   Overcast
5:15 PM 32.0 °F 25.6 °F 32.0 °F 100% 29.97 in 10.0 mi West 6.9 mph - N/A   Overcast
5:35 PM 32.0 °F 27.5 °F 30.2 °F 93% 29.99 in 10.0 mi WSW 4.6 mph - N/A   Overcast
5:55 PM 32.0 °F 27.5 °F 30.2 °F 93% 29.99 in 10.0 mi West 4.6 mph - N/A   Overcast
6:15 PM 32.0 °F 27.5 °F 30.2 °F 93% 29.99 in 4.0 mi West 4.6 mph - N/A Snow Light Snow
6:35 PM 32.0 °F 27.5 °F 30.2 °F 93% 30.00 in 7.0 mi West 4.6 mph - N/A   Overcast
6:55 PM 32.0 °F - 30.2 °F 93% 30.01 in 10.0 mi Calm Calm - N/A   Overcast
7:15 PM 32.0 °F 26.4 °F 30.2 °F 93% 30.02 in 10.0 mi WSW 5.8 mph - N/A   Overcast
7:35 PM 32.0 °F 27.5 °F 30.2 °F 93% 30.02 in 10.0 mi WSW 4.6 mph - N/A   Overcast
7:55 PM 32.0 °F 27.5 °F 28.4 °F 87% 30.03 in 10.0 mi West 4.6 mph - N/A   Overcast
8:15 PM 32.0 °F 26.4 °F 28.4 °F 87% 30.04 in 10.0 mi West 5.8 mph - N/A   Overcast
8:35 PM 30.2 °F 23.4 °F 28.4 °F 93% 30.04 in 10.0 mi West 6.9 mph - N/A   Overcast
8:55 PM 30.2 °F 24.3 °F 28.4 °F 93% 30.05 in 10.0 mi WSW 5.8 mph - N/A   Overcast
9:15 PM 30.2 °F 22.6 °F 28.4 °F 93% 30.06 in 10.0 mi West 8.1 mph - N/A   Overcast
9:55 PM 30.2 °F 24.3 °F 28.4 °F 93% 30.07 in 10.0 mi West 5.8 mph - N/A   Overcast
10:15 PM 30.2 °F 26.7 °F 28.4 °F 93% 30.08 in 10.0 mi West 3.5 mph - N/A   Overcast
10:35 PM 30.2 °F 24.3 °F 28.4 °F 93% 30.08 in 10.0 mi West 5.8 mph - N/A   Overcast
10:55 PM 30.2 °F 25.4 °F 28.4 °F 93% 30.08 in 10.0 mi West 4.6 mph - N/A   Overcast
11:15 PM 28.4 °F 22.2 °F 28.4 °F 100% 30.08 in 10.0 mi West 5.8 mph - N/A   Overcast
11:35 PM 28.4 °F 22.2 °F 28.4 °F 100% 30.08 in 10.0 mi WSW 5.8 mph - N/A   Overcast
11:55 PM 28.4 °F 22.2 °F 28.4 °F 100% 30.08 in 10.0 mi WSW 5.8 mph - N/A   Overcast